Tracking 19562 objects as of 23-Mar-2019
HD Live streaming from Space Station
objects crossing your sky now

COSMOS 2208

Track COSMOS 2208 now!
10-day predictions
COSMOS 2208 is classified as:


NORAD ID: 22080
Int'l Code: 1992-053A
Perigee: 787.6 km
Apogee: 805.7 km
Inclination: 74.0 °
Period: 100.7 minutes
Semi major axis: 7167 km
RCS: 2.0202 m2 (large)
Launch date: August 12, 1992
Source: Commonwealth of Independent States (former USSR) (CIS)
Launch site: PLESETSK MISSILE AND SPACE COMPLEX (PKMTR)
aabbcc
Your satellite tracking list
Your tracking list is empty




NASA's NSSDC Master Catalog

Two Line Element Set (TLE):
1 22080U 92053A   19081.91602614 -.00000014 +00000-0 +46889-5 0  9995
2 22080 074.0430 044.2386 0012622 161.4734 198.6878 14.30674614388594
Source of the keplerian elements: AFSPC